EW5186 Weather Reports


time (UTC)temp
F
wind
direction
speed
knots
gust
knots
rain 1hr
in
rain 24hr
in
rain mn
in
humidity
%
barometer
mb
20260503051554 45 357 0.0 3.5 0.00 0.01 0.00 62 1012.2
20260503050052 45 249 0.0 2.6 0.00 0.01 0.00 62 1012.3
20260503044534 45 30 0.0 2.6 0.00 0.01 0.00 65 1012.4
20260503043031 46 52 0.0 0.9 0.00 0.01 0.00 64 1012.5
20260503041513 46 342 0.0 2.6 0.00 0.01 0.00 61 1012.5
20260503040017 47 234 0.0 0.9 0.00 0.01 0.01 59 1012.5
20260503034609 47 283 0.0 2.6 0.00 0.01 0.01 59 1012.4
20260503033106 47 206 0.0 3.5 0.00 0.01 0.01 59 1012.5
20260503031557 47 315 0.0 3.5 0.00 0.01 0.01 59 1012.5
20260503030056 47 360 0.0 1.7 0.00 0.01 0.01 60 1012.7
20260503024557 47 222 0.0 1.7 0.00 0.01 0.01 60 1012.5
20260503023100 47 320 0.0 0.9 0.00 0.01 0.01 62 1012.6
20260503021554 48 92 0.0 0.9 0.00 0.01 0.01 60 1012.8
20260503020055 49 162 0.0 1.7 0.00 0.01 0.01 59 1012.6
20260503014536 49 316 0.0 2.6 0.00 0.01 0.01 61 1012.5
20260503013035 49 250 0.0 1.7 0.00 0.01 0.01 62 1012.5
20260503011522 49 81 0.0 3.5 0.00 0.01 0.01 63 1012.4
20260503010021 48 218 0.0 0.0 0.00 0.01 0.01 72 1012.2
20260503004559 49 218 0.0 0.0 0.00 0.01 0.01 69 1012.1
20260503003058 50 218 0.0 0.0 0.00 0.01 0.01 66 1012.0
20260503001546 52 218 0.0 0.0 0.00 0.01 0.01 65 1011.9
20260503000048 53 293 0.0 0.9 0.00 0.01 0.01 63 1011.8
20260502234554 54 278 0.0 2.6 0.00 0.01 0.01 59 1011.7
20260502233044 55 302 0.0 7.0 0.00 0.01 0.01 57 1011.5
20260502231547 56 338 0.0 0.9 0.00 0.01 0.01 66 1011.5
20260502230044 56 101 0.0 0.0 0.00 0.01 0.01 66 1011.1
20260502224542 56 101 0.0 1.7 0.00 0.01 0.01 63 1011.2
20260502223042 56 117 0.0 0.9 0.00 0.01 0.01 62 1011.1
20260502221542 57 103 0.0 1.7 0.00 0.01 0.01 59 1011.0
20260502220024 57 108 0.0 2.6 0.00 0.01 0.01 60 1010.9
20260502214534 58 307 0.0 1.7 0.00 0.01 0.01 60 1011.1
20260502213012 58 49 0.0 1.7 0.00 0.01 0.01 61 1011.0
20260502211517 57 236 0.0 0.9 0.00 0.01 0.01 60 1011.1
20260502210022 57 123 0.0 3.5 0.00 0.01 0.01 61 1010.9
20260502204511 57 235 0.0 3.5 0.00 0.01 0.01 65 1011.1
20260502203010 56 303 0.0 0.9 0.00 0.01 0.01 63 1011.4
20260502201507 56 251 0.0 1.7 0.00 0.01 0.01 68 1011.7
20260502200002 55 298 0.9 3.5 0.00 0.01 0.01 66 1011.8
20260502194600 56 316 0.0 2.6 0.00 0.01 0.01 69 1012.0
20260502194501 56 316 0.9 2.6 0.00 0.01 0.01 69 1012.0
20260502193049 56 312 1.7 5.2 0.00 0.01 0.01 69 1012.1
20260502191545 57 170 0.9 7.0 0.00 0.01 0.01 74 1012.3
20260502190026 57 300 1.7 9.6 0.00 0.01 0.01 71 1012.4
20260502184521 55 24 1.7 5.2 0.00 0.01 0.01 74 1012.7
20260502183004 53 86 0.9 5.2 0.00 0.01 0.01 79 1012.8
20260502181504 51 255 2.6 8.7 0.00 0.01 0.01 79 1012.7
20260502163039 56 255 0.9 3.5 0.00 0.01 0.01 75 1012.6
20260502161537 55 81 0.9 4.3 0.00 0.01 0.01 76 1012.9
20260502151519 55 85 2.6 7.0 0.00 0.01 0.01 74 1013.1
20260502123031 50 347 0.0 0.9 0.01 0.01 0.01 90 1013.3
20260502121539 49 103 0.0 0.9 0.01 0.01 0.01 90 1013.1
20260502114527 48 38 0.0 0.9 0.01 0.01 0.01 91 1013.3
20260502113026 47 275 0.0 1.7 0.00 0.00 0.00 92 1014.1
20260502111526 47 229 0.0 0.0 0.00 0.00 0.00 92 1014.0
20260502110006 47 243 0.0 0.0 0.00 0.00 0.00 92 1013.7
20260502104506 47 98 0.0 0.0 0.00 0.00 0.00 92 1013.6
20260502103102 47 98 0.0 0.0 0.00 0.00 0.00 91 1013.5
20260502101558 47 98 0.0 0.0 0.00 0.00 0.00 91 1013.4
20260502091516 47 99 0.0 0.0 0.00 0.00 0.00 89 1012.7
20260502071511 48 205 0.0 0.0 0.00 0.00 0.00 84 1012.9
20260502070008 48 139 0.0 0.0 0.00 0.00 0.00 84 1012.9
20260502064502 48 143 0.0 0.9 0.00 0.00 0.00 84 1013.1
20260502063005 48 86 0.0 0.9 0.00 0.00 0.00 83 1013.0
20260502061600 48 153 0.0 0.0 0.00 0.00 0.00 83 1013.0
20260502060034 49 86 0.0 1.7 0.00 0.00 0.00 83 1013.1
20260502054541 49 141 0.0 1.7 0.00 0.00 0.00 83 1013.2
20260502053020 49 267 0.0 0.9 0.00 0.00 0.00 82 1013.4